Back to catalog

STARLINK-3608

AliveCommunicationsVLEO
NORAD 51776·PAYLOAD·🇺🇸 United States

Launched Feb 25, 2022 from Vandenberg Space Force Base

Loading…

Next Passes (next 24 hours)

TLE

FreshSource: CelesTrak SupGP

Epoch: Sep 15, 2026, 01:30 UTC

1 51776C 22017J   26258.06298611 -.00033361  00000+0 -95456-3 0  2581
2 51776  53.1584 197.1868 0001329  84.3702  27.1492 15.35412803    11

Track STARLINK-3608 in real time with AllMySat

Download on the App Store